Powrót do katalogu

COSMOS 2251 DEB

LostLEO
NORAD 35767·DEBRIS·🇷🇺 Russia

Wystrzelony Jun 16, 1993 z Plesetsk Cosmodrome

Loading…

Następne Przeloty (najbliższe 24 godziny)

TLE

NieaktualneSource: Space-Track

Epoka: Dec 9, 2024, 00:26 UTC

1 35767U 93036ARM 24344.01857859  .00024642  00000-0  56122-2 0  9995
2 35767  73.9872 254.4981 0041255  48.2883 312.1797 14.55252674597067

Śledź COSMOS 2251 DEB w czasie rzeczywistym z AllMySat

Download on the App Store